{"data":{"norad_id":50200,"intl_designator":"2021-125AW","name":"STARLINK-3235","alt_names":[],"object_type":"PAYLOAD","status":"ACTIVE","operator":null,"country":"US","launch_date":"2021-12-18","launch_site_code":"AFWTR","launch_vehicle":null,"mission":null,"orbit_class":"UNKNOWN","rcs_meters":null,"size_class":null,"mass_kg":null,"dimensions":null,"purposes":["comms"],"wikipedia_slug":null,"has_3d_model":false,"image_url":null,"decayed_at":null,"tle_current":{"epoch":"2026-09-20T00:48:42.643296Z","epoch_age_seconds":85640,"freshness":"FRESH","line1":"1 50200U 21125AW  26263.03382689  .00000755  00000+0  34277-4 0  9999","line2":"2 50200  53.1603  76.2167 0000752  85.7523 274.3565 15.33549420266226","mean_motion":15.3354942,"eccentricity":7.52e-5,"inclination_deg":53.1603,"raan_deg":76.2167,"arg_perigee_deg":85.7523,"mean_anomaly_deg":274.3565,"bstar":3.4277e-5,"rev_number":26622,"period_min":93.899810545395,"perigee_km":464.71789026534,"apogee_km":465.74713303989,"semimajor_km":6843.3695116526,"source":"CELESTRAK","updated_at":"2026-09-20T09:00:39.420199Z"}}}